Location: Waco, TX
(31.5480°N, 97.1670°W)
Time: 15:07:17
(UTC-05:00)

ISS - Pass Details

Date: 15 September 2019
Orbit: 411 x 421 km, 51.6° (Epoch: 17 September)

Event Time Altitude Azimuth Distance (km) Brightness Sun altitude
Rises 04:39:08 0° 334° (NNW) 2,348 - -32.2°
Reaches altitude 10° 04:42:18 10° 7° (N) 1,486 - -31.6°
Maximum altitude 04:43:42 12° 32° (NNE) 1,365 - -31.3°
Exits shadow 04:44:29 11° 47° (NE) 1,404 -0.3 -31.2°
Drops below altitude 10° 04:45:06 10° 57° (ENE) 1,486 -0.1 -31.1°
Sets 04:48:16 0° 90° (E) 2,349 1.0 -30.5°
